• In Hungary
  • List of Countries
  • For 7 days
  • Water Temperature
  • Satellite Maps
  • Weather Map
  • News
  • Weather Widgets
  • user-avatar
    Login

    Hourly Weather Allentown

    Today, 23 October, Monday

    Time Temperature Precipitation Wind Pressure Humidity
    00:00 +14°C° 0 mm 1 mps 761 mmHg 83%
    01:00 +14°C° 0 mm 1 mps 760 mmHg 88%
    02:00 +14°C° 0 mm 1 mps 760 mmHg 90%
    03:00 +14°C° 0 mm 1 mps 760 mmHg 92%
    04:00 +14°C° 0 mm 1 mps 760 mmHg 94%
    05:00 +14°C° 0 mm 1 mps 760 mmHg 95%
    06:00 +14°C° 0 mm 1 mps 760 mmHg 96%
    07:00 +14°C° 0 mm 1 mps 759 mmHg 97%
    08:00 +16°C° 0 mm 2 mps 759 mmHg 91%
    09:00 +18°C° 0 mm 2 mps 759 mmHg 85%
    10:00 +20°C° 0 mm 3 mps 758 mmHg 80%
    11:00 +21°C° 0.1 mm 3 mps 758 mmHg 77%
    12:00 +21°C° 0.1 mm 4 mps 757 mmHg 74%
    13:00 +22°C° 0.1 mm 4 mps 756 mmHg 71%
    14:00 +22°C° 0 mm 4 mps 755 mmHg 73%
    15:00 +21°C° 0 mm 4 mps 755 mmHg 75%
    16:00 +21°C° 0 mm 4 mps 754 mmHg 77%
    17:00 +21°C° 0.1 mm 4 mps 753 mmHg 79%
    18:00 +20°C° 0.1 mm 5 mps 753 mmHg 81%
    19:00 +20°C° 0.1 mm 5 mps 752 mmHg 84%
    20:00 +20°C° 0.1 mm 5 mps 752 mmHg 83%
    21:00 +20°C° 0.1 mm 5 mps 751 mmHg 83%
    22:00 +21°C° 0.1 mm 6 mps 750 mmHg 82%
    23:00 +21°C° 0 mm 6 mps 750 mmHg 82%

    Tomorrow, 24 October, Tuesday

    Time Temperature Precipitation Wind Pressure Humidity
    00:00 +21°C° 0 mm 6 mps 749 mmHg 81%
    01:00 +21°C° 0 mm 7 mps 748 mmHg 80%
    02:00 +21°C° 1.1 mm 7 mps 748 mmHg 83%
    03:00 +21°C° 1.1 mm 7 mps 748 mmHg 86%
    04:00 +21°C° 1.1 mm 7 mps 748 mmHg 89%
    05:00 +21°C° 3.6 mm 6 mps 747 mmHg 90%
    06:00 +20°C° 3.6 mm 6 mps 747 mmHg 90%
    07:00 +20°C° 3.6 mm 5 mps 747 mmHg 91%
    08:00 +20°C° 4.3 mm 5 mps 747 mmHg 90%
    09:00 +20°C° 4.3 mm 4 mps 747 mmHg 89%
    10:00 +20°C° 4.3 mm 4 mps 747 mmHg 88%
    11:00 +20°C° 2 mm 4 mps 747 mmHg 87%
    12:00 +21°C° 2 mm 4 mps 746 mmHg 86%
    13:00 +21°C° 2 mm 4 mps 746 mmHg 86%
    14:00 +21°C° 0.9 mm 4 mps 746 mmHg 84%
    15:00 +22°C° 0.9 mm 4 mps 746 mmHg 82%
    16:00 +22°C° 0.9 mm 3 mps 745 mmHg 81%
    17:00 +20°C° 0.1 mm 3 mps 746 mmHg 83%
    18:00 +19°C° 0.1 mm 2 mps 746 mmHg 86%
    19:00 +18°C° 0.1 mm 2 mps 747 mmHg 89%
    20:00 +17°C° 0 mm 2 mps 747 mmHg 89%
    21:00 +17°C° 0 mm 2 mps 747 mmHg 89%
    22:00 +16°C° 0 mm 2 mps 747 mmHg 88%
    23:00 +15°C° 0 mm 2 mps 747 mmHg 85%

    Day after tomorrow, 25 October, Wednesday

    Time Temperature Precipitation Wind Pressure Humidity
    00:00 +14°C° 0 mm 2 mps 747 mmHg 82%
    01:00 +12°C° 0 mm 3 mps 747 mmHg 79%
    02:00 +12°C° 0 mm 2 mps 747 mmHg 79%
    03:00 +12°C° 0 mm 2 mps 747 mmHg 79%
    04:00 +10°C° 0 mm 2 mps 747 mmHg 79%
    05:00 +10°C° 0 mm 2 mps 748 mmHg 78%
    06:00 +10°C° 0 mm 2 mps 748 mmHg 77%
    07:00 +10°C° 0 mm 2 mps 748 mmHg 75%
    08:00 +12°C° 0 mm 2 mps 748 mmHg 68%
    09:00 +12°C° 0 mm 3 mps 748 mmHg 62%
    10:00 +13°C° 0 mm 3 mps 748 mmHg 55%
    11:00 +14°C° 0 mm 3 mps 748 mmHg 52%
    12:00 +16°C° 0 mm 3 mps 748 mmHg 49%
    13:00 +16°C° 0 mm 3 mps 747 mmHg 46%
    14:00 +16°C° 0 mm 3 mps 747 mmHg 50%
    15:00 +14°C° 0 mm 3 mps 747 mmHg 53%
    16:00 +14°C° 0 mm 3 mps 747 mmHg 56%
    17:00 +14°C° 0 mm 2 mps 748 mmHg 59%
    18:00 +13°C° 0 mm 2 mps 749 mmHg 62%
    19:00 +12°C° 0 mm 2 mps 749 mmHg 65%
    20:00 +10°C° 0 mm 2 mps 750 mmHg 67%
    21:00 +9°C° 0 mm 2 mps 750 mmHg 70%
    22:00 +8°C° 0 mm 2 mps 750 mmHg 72%
    23:00 +8°C° 0 mm 2 mps 751 mmHg 74%

    26 October, Thursday

    Time Temperature Precipitation Wind Pressure Humidity
    00:00 +7°C° 0 mm 2 mps 751 mmHg 75%
    01:00 +7°C° 0 mm 3 mps 751 mmHg 76%
    02:00 +6°C° 0 mm 2 mps 752 mmHg 77%
    03:00 +6°C° 0 mm 2 mps 752 mmHg 79%
    04:00 +5°C° 0 mm 2 mps 752 mmHg 80%
    05:00 +6°C° 0 mm 1 mps 753 mmHg 80%
    06:00 +6°C° 0 mm 1 mps 753 mmHg 80%
    07:00 +6°C° 0 mm 1 mps 754 mmHg 81%
    08:00 +8°C° 0 mm 1 mps 754 mmHg 71%
    09:00 +10°C° 0 mm 1 mps 754 mmHg 60%
    10:00 +12°C° 0 mm 2 mps 755 mmHg 50%
    11:00 +14°C° 0 mm 2 mps 754 mmHg 48%
    12:00 +15°C° 0 mm 2 mps 754 mmHg 46%
    13:00 +16°C° 0 mm 2 mps 754 mmHg 44%
    14:00 +16°C° 0 mm 2 mps 754 mmHg 48%
    15:00 +15°C° 0 mm 2 mps 754 mmHg 52%
    16:00 +15°C° 0 mm 1 mps 754 mmHg 56%
    17:00 +14°C° 0 mm 1 mps 754 mmHg 60%
    18:00 +12°C° 0 mm 1 mps 755 mmHg 64%
    19:00 +9°C° 0 mm 0 mps 755 mmHg 68%
    20:00 +9°C° 0 mm 0 mps 755 mmHg 69%
    21:00 +9°C° 0 mm 0 mps 755 mmHg 70%
    22:00 +8°C° 0 mm 0 mps 755 mmHg 70%
    23:00 +8°C° 0 mm 0 mps 755 mmHg 71%

    27 October, Friday

    Time Temperature Precipitation Wind Pressure Humidity
    00:00 +8°C° 0 mm 0 mps 754 mmHg 72%
    01:00 +8°C° 0 mm 0 mps 754 mmHg 73%
    02:00 +7°C° 0 mm 0 mps 754 mmHg 73%
    03:00 +7°C° 0 mm 0 mps 754 mmHg 74%
    04:00 +7°C° 0 mm 0 mps 754 mmHg 74%
    05:00 +7°C° 0 mm 0 mps 754 mmHg 74%
    06:00 +7°C° 0 mm 0 mps 754 mmHg 74%
    07:00 +7°C° 0 mm 0 mps 754 mmHg 74%
    08:00 +11°C° 0 mm 1 mps 754 mmHg 67%
    09:00 +13°C° 0 mm 1 mps 754 mmHg 59%
    10:00 +15°C° 0 mm 1 mps 754 mmHg 52%
    11:00 +18°C° 0 mm 1 mps 753 mmHg 49%
    12:00 +19°C° 0 mm 1 mps 752 mmHg 47%
    13:00 +20°C° 0 mm 1 mps 752 mmHg 44%
    14:00 +19°C° 0 mm 1 mps 751 mmHg 48%
    15:00 +19°C° 0 mm 1 mps 751 mmHg 51%
    16:00 +16°C° 0 mm 0 mps 751 mmHg 54%
    17:00 +14°C° 0 mm 0 mps 751 mmHg 58%
    18:00 +12°C° 0 mm 0 mps 751 mmHg 62%
    19:00 +11°C° 0 mm 0 mps 751 mmHg 66%
    20:00 +10°C° 0 mm 0 mps 751 mmHg 68%
    21:00 +10°C° 0 mm 0 mps 751 mmHg 69%
    22:00 +9°C° 0 mm 0 mps 751 mmHg 71%
    23:00 +9°C° 0 mm 0 mps 751 mmHg 72%

    28 October, Saturday

    Time Temperature Precipitation Wind Pressure Humidity
    00:00 +9°C° 0 mm 0 mps 751 mmHg 73%
    01:00 +9°C° 0 mm 0 mps 751 mmHg 74%
    02:00 +8°C° 0 mm 0 mps 751 mmHg 75%
    03:00 +8°C° 0 mm 0 mps 751 mmHg 76%
    04:00 +8°C° 0 mm 0 mps 751 mmHg 77%
    05:00 +8°C° 0 mm 0 mps 751 mmHg 78%
    06:00 +8°C° 0 mm 0 mps 751 mmHg 79%
    07:00 +9°C° 0 mm 1 mps 751 mmHg 80%
    08:00 +10°C° 0 mm 0 mps 751 mmHg 73%
    09:00 +12°C° 0 mm 0 mps 751 mmHg 66%
    10:00 +15°C° 0 mm 0 mps 751 mmHg 59%
    11:00 +18°C° 0 mm 1 mps 750 mmHg 56%
    12:00 +18°C° 0 mm 1 mps 750 mmHg 54%
    13:00 +18°C° 0 mm 2 mps 749 mmHg 52%
    14:00 +17°C° 0 mm 2 mps 749 mmHg 58%
    15:00 +16°C° 0 mm 3 mps 749 mmHg 64%
    16:00 +13°C° 0 mm 3 mps 749 mmHg 70%
    17:00 +12°C° 0.1 mm 3 mps 749 mmHg 73%
    18:00 +11°C° 0.1 mm 3 mps 750 mmHg 76%
    19:00 +9°C° 0.1 mm 3 mps 750 mmHg 79%
    20:00 +9°C° 0 mm 3 mps 750 mmHg 80%
    21:00 +8°C° 0 mm 3 mps 749 mmHg 80%
    22:00 +8°C° 0 mm 3 mps 749 mmHg 80%
    23:00 +8°C° 0 mm 2 mps 749 mmHg 80%

    29 October, Sunday

    Time Temperature Precipitation Wind Pressure Humidity
    00:00 +8°C° 0 mm 2 mps 749 mmHg 80%
    01:00 +7°C° 0 mm 2 mps 748 mmHg 80%
    02:00 +7°C° 0.3 mm 2 mps 748 mmHg 82%
    03:00 +7°C° 0.3 mm 2 mps 748 mmHg 83%
    04:00 +7°C° 0.3 mm 2 mps 747 mmHg 85%
    05:00 +7°C° 1.2 mm 2 mps 747 mmHg 87%
    06:00 +7°C° 1.2 mm 2 mps 747 mmHg 88%
    07:00 +6°C° 1.2 mm 2 mps 747 mmHg 90%
    08:00 +7°C° 1.4 mm 2 mps 746 mmHg 90%
    09:00 +7°C° 1.4 mm 2 mps 746 mmHg 89%
    10:00 +7°C° 1.4 mm 2 mps 746 mmHg 89%
    11:00 +7°C° 0.4 mm 2 mps 745 mmHg 88%
    12:00 +7°C° 0.4 mm 3 mps 744 mmHg 86%
    13:00 +8°C° 0.4 mm 3 mps 743 mmHg 85%
    14:00 +8°C° 0.3 mm 3 mps 743 mmHg 85%
    15:00 +8°C° 0.3 mm 3 mps 743 mmHg 84%
    16:00 +8°C° 0.3 mm 3 mps 742 mmHg 84%
    17:00 +7°C° 0 mm 3 mps 742 mmHg 84%
    18:00 +5°C° 0 mm 3 mps 742 mmHg 84%
    19:00 +4°C° 0 mm 3 mps 742 mmHg 84%
    20:00 +4°C° 0 mm 3 mps 742 mmHg 82%
    21:00 +3°C° 0 mm 3 mps 742 mmHg 81%
    22:00 +3°C° 0 mm 3 mps 742 mmHg 79%
    23:00 +3°C° 0 mm 3 mps 742 mmHg 79%
    Show more